Location: Amsterdam
(30.7274°N, 84.4357°W)
Time: 12:46:11
(UTC+00:00)

AO-7 - Visible Passes

Search period start: 10 March 2026 00:00
Search period end: 20 March 2026 00:00
Orbit: 1440 x 1458 km, 102.0° (Epoch: 10 March)

Date Brightness Start Highest point End Pass type
(mag) Time Alt. Az. Time Alt. Az. Time Alt. Az.
10 Mar ? 00:31:31 10° SSW 00:38:18 28° W 00:45:08 10° NW visible
10 Mar ? 10:46:34 10° NE 10:52:46 23° E 10:58:56 10° SE visible
12 Mar ? 00:23:59 10° SSW 00:31:06 32° W 00:38:17 10° NW visible
12 Mar ? 10:39:53 10° NE 10:45:34 20° E 10:51:11 10° SE visible
13 Mar ? 01:22:27 10° WSW 01:24:29 11° W 01:26:32 10° WNW visible
14 Mar ? 00:16:31 10° SSW 00:23:54 36° W 00:31:23 10° NW visible
14 Mar ? 10:33:19 10° ENE 10:38:20 17° E 10:43:20 10° SE visible
15 Mar ? 01:13:41 10° WSW 01:17:14 13° W 01:20:50 10° WNW visible
16 Mar ? 00:09:06 10° SSW 00:16:44 40° W 00:24:26 10° NNW visible
16 Mar ? 10:26:55 10° ENE 10:31:07 15° E 10:35:17 10° SE visible
17 Mar ? 01:05:29 10° SW 01:10:01 16° W 01:14:35 10° WNW visible
17 Mar ? 11:16:46 10° NE 11:24:25 38° E 11:31:59 10° SSE visible
18 Mar ? 00:01:44 10° S 00:09:33 45° WSW 00:17:27 10° NNW visible
18 Mar ? 10:20:50 10° ENE 10:23:53 12° E 10:26:54 10° ESE visible
19 Mar ? 00:57:31 10° SW 01:02:47 18° W 01:08:06 10° NW visible
19 Mar ? 11:09:51 10° NE 11:17:14 34° E 11:24:33 10° SSE visible
